Preview of NWS' New Version of Forecast
This preview is not operational and should not be used for support decisions.

Regional Weather Roundup (RWR)

Issued by National Weather Service (NWS)

                            
000
ASUS45 KBOI 250810
RWRID 

IDAHO REGIONAL WEATHER ROUNDUP
NATIONAL WEATHER SERVICE BOISE ID
200 AM MDT TUE JUN 25 2019

NOTE: "FAIR" INDICATES FEW OR NO CLOUDS BELOW 12000 FEET
WITH NO SIGNIFICANT WEATHER AND/OR OBSTRUCTIONS TO VISIBILITY

IDZ012-014-250900-
SOUTHWEST IDAHO

  
CITY           SKY/WX    TMP DP  RH WIND       PRES   REMARKS
BOISE          PTCLDY    62  42  47 SE7       29.82S                  
CALDWELL       PTCLDY    58  49  72 N6        29.81S                  
MOUNTAIN HOME  CLOUDY    58  39  49 NW6       29.82S                  
$$

IDZ016-017-250900-
SOUTHCENTRAL IDAHO

  
CITY           SKY/WX    TMP DP  RH WIND       PRES   REMARKS
BURLEY         CLOUDY    59  45  59 CALM      29.88S                  
JEROME         MOCLDY    60  43  53 SE7       29.88F                  
TWIN FALLS     PTCLDY    55  42  61 S9        29.88F                  
$$

IDZ019>023-250900-
SOUTHEAST IDAHO

  
CITY           SKY/WX    TMP DP  RH WIND       PRES   REMARKS
IDAHO FALLS    CLOUDY    55  39  54 SW9       29.93S                  
POCATELLO      CLOUDY    55  39  54 E7        29.92S                  
REXBURG        MOCLDY    56  36  47 S6        29.92S                  
$$

IDZ006-010-011-018-031-032-250900-
CENTRAL IDAHO MOUNTAINS

  
CITY           SKY/WX    TMP DP  RH WIND       PRES   REMARKS
MCCALL         MOCLDY    46  35  65 CALM      29.91F                  
HAILEY         MOCLDY    50  37  62 NW8       29.98S                  
STANLEY          N/A     40  31  70 CALM      30.03R                  
SALMON         PTCLDY    48  38  68 CALM      29.93R                  
CHALLIS        PTCLDY    52  32  46 CALM      29.96R                  
$$

IDZ002-004-006-007-026-250900-
NORTHERN IDAHO

  
CITY           SKY/WX    TMP DP  RH WIND       PRES   REMARKS
LEWISTON       PTCLDY    57  37  47 SE3       29.85S                  
LOWELL           N/A     52  47  83 CALM      29.91S                  
COEUR D'ALENE  CLEAR     51  46  83 NE7       29.89S                  
MULLAN PASS      N/A     45  27  49 MISG      29.97S                  
$$